Regional Weather Roundup
Issued by NWS

Home | Current Version | Previous Version | Graphics & Text | Print | Product List | Glossary On
Versions: 1 2 3 4 5 6 7 8 9 10 11 12 13 14 15 16 17 18 19 20 21 22 23 24 25 26 27 28 29 30 31 32 33 34 35 36 37 38 39 40 41 42 43 44 45 46 47 48 49 50
000
ASUS43 KBIS 301020
RWRND

NORTH DAKOTA REGIONAL WEATHER ROUNDUP
NATIONAL WEATHER SERVICE BISMARCK ND
400 AM CST FRI JAN 30 2015

NOTE: "FAIR" INDICATES FEW OR NO CLOUDS BELOW 12,000 FEET WITH NO
SIGNIFICANT WEATHER AND/OR OBSTRUCTIONS TO VISIBILITY.


NDZ001>003-009>011-017-301100-
NORTHWEST NORTH DAKOTA

CITY           SKY/WX    TMP DP  RH WIND       PRES   REMARKS
WILLISTON      CLEAR     22  17  81 SW3       30.17S
MINOT          CLOUDY    20  16  84 SE7       30.21F WCI  11
MINOT AFB      CLOUDY    18  18  98 SE7       30.21F WCI   9
$$

NDZ018>021-031>035-040>046-301100-
SOUTHWEST NORTH DAKOTA

CITY           SKY/WX    TMP DP  RH WIND       PRES   REMARKS
BISMARCK       CLEAR     20  18  92 SE13      30.32F WCI   7
DICKINSON      PTCLDY    28  18  66 S15       30.15F WCI  16
GARRISON         N/A     19  17  92 S7        30.23F WCI  10
HETTINGER ARPT PTCLDY    25  18  74 S6        30.23F WCI  18
$$

NDZ004>008-012>016-024-026-027-054-301100-
NORTHEAST NORTH DAKOTA

CITY           SKY/WX    TMP DP  RH WIND       PRES   REMARKS
GRAND FORKS    CLOUDY     8   1  73 S7        30.48F WCI  -3
GRND FRKS AFB  CLOUDY     7   1  76 S9        30.47F WCI  -6
DEVILS LAKE    CLOUDY    16  12  86 S12       30.33F WCI   3
$$

NDZ022-023-025-028>030-036>039-047>053-301100-
SOUTHEAST NORTH DAKOTA

CITY           SKY/WX    TMP DP  RH WIND       PRES   REMARKS
FARGO          MOCLDY    10   2  69 SE8       30.49F WCI  -2
JAMESTOWN      CLOUDY    18  15  88 S16       30.37F WCI   3
$$



USA.gov is the U.S. government's official web portal to all federal, state and local government web resources and services.